NK7E Weather Reports


Display with metric or nautical units.
time (UTC)temp
F
wind
direction
speed
MPH
gust
MPH
rain 1hr
in
rain 24hr
in
rain mn
in
humidity
%
barometer
mb
20260504223517 76 248 10.0 23.0 0.00 0.00 0.00 23 1013.1
20260504222517 77 270 12.0 23.0 0.00 0.00 0.00 23 1013.0
20260504221517 77 270 7.0 15.0 0.00 0.00 0.00 22 1013.1
20260504220517 77 293 9.0 17.0 0.00 0.00 0.00 21 1013.3
20260504215517 78 293 11.0 19.0 0.00 0.00 0.00 21 1013.2
20260504214517 78 293 10.0 17.0 0.00 0.00 0.00 21 1013.1
20260504213517 78 270 7.0 14.0 0.00 0.00 0.00 23 1012.8
20260504212517 78 270 10.0 19.0 0.00 0.00 0.00 22 1012.9
20260504211517 79 270 9.0 17.0 0.00 0.00 0.00 23 1013.0
20260504210517 79 248 4.0 10.0 0.00 0.00 0.00 19 1013.2
20260504205517 79 270 3.0 10.0 0.00 0.00 0.00 19 1013.2
20260504204517 79 248 3.0 8.0 0.00 0.00 0.00 19 1013.2
20260504203517 80 248 4.0 12.0 0.00 0.00 0.00 19 1013.2
20260504202517 80 270 3.0 7.0 0.00 0.00 0.00 19 1013.4
20260504201517 80 293 2.0 4.0 0.00 0.00 0.00 20 1013.5
20260504200517 80 270 1.0 3.0 0.00 0.00 0.00 20 1013.5
20260504195517 80 225 4.0 9.0 0.00 0.00 0.00 20 1013.4
20260504194517 79 135 4.0 8.0 0.00 0.00 0.00 23 1013.3
20260504193517 79 135 4.0 11.0 0.00 0.00 0.00 23 1013.3
20260504192517 79 113 4.0 9.0 0.00 0.00 0.00 24 1013.3
20260504191517 78 113 2.0 7.0 0.00 0.00 0.00 25 1013.5
20260504190517 78 90 6.0 10.0 0.00 0.00 0.00 24 1013.3
20260504185517 78 135 4.0 9.0 0.00 0.00 0.00 25 1013.6
20260504184517 78 135 4.0 10.0 0.00 0.00 0.00 26 1013.9
20260504183517 78 203 2.0 5.0 0.00 0.00 0.00 25 1014.0
20260504182517 77 158 3.0 8.0 0.00 0.00 0.00 26 1014.0
20260504181517 77 158 4.0 8.0 0.00 0.00 0.00 26 1014.3
20260504180517 76 23 2.0 6.0 0.00 0.00 0.00 27 1014.2
20260504175517 76 113 4.0 7.0 0.00 0.00 0.00 27 1014.3
20260504174517 76 158 2.0 6.0 0.00 0.00 0.00 27 1014.3
20260504173517 76 158 5.0 8.0 0.00 0.00 0.00 27 1014.4
20260504172517 75 90 3.0 7.0 0.00 0.00 0.00 28 1014.5
20260504171517 75 113 3.0 10.0 0.00 0.00 0.00 28 1014.5
20260504170517 75 113 3.0 7.0 0.00 0.00 0.00 29 1014.4
20260504150517 73 135 4.0 12.0 0.00 0.00 0.00 33 1014.4
20260504140517 70 90 2.0 8.0 0.00 0.00 0.00 35 1014.0
20260504130517 68 90 1.0 3.0 0.00 0.00 0.00 36 1013.5
20260504110517 70 135 2.0 10.0 0.00 0.00 0.00 35 1012.9
20260504100517 70 90 1.0 3.0 0.00 0.00 0.00 36 1012.9
20260504081517 71 68 1.0 4.0 0.00 0.00 0.00 34 1012.4
20260504080517 71 68 2.0 4.0 0.00 0.00 0.00 33 1012.8
20260504050517 73 135 1.0 3.0 0.00 0.00 0.00 29 1013.2
20260504045517 73 45 2.0 4.0 0.00 0.00 0.00 28 1013.3
20260504044517 74 0.0 1.0 0.00 0.00 0.00 28 1013.4
20260504043517 74 293 1.0 6.0 0.00 0.00 0.00 27 1013.3
20260504042517 74 248 1.0 2.0 0.00 0.00 0.00 26 1013.2
20260504041517 75 225 2.0 9.0 0.00 0.00 0.00 26 1013.3
20260504040517 75 225 3.0 9.0 0.00 0.00 0.00 25 1012.8
20260504035517 75 225 3.0 6.0 0.00 0.00 0.00 24 1012.6
20260504034517 76 225 4.0 11.0 0.00 0.00 0.00 23 1012.4
20260504033517 76 225 3.0 6.0 0.00 0.00 0.00 22 1012.3
20260504032517 77 203 4.0 9.0 0.00 0.00 0.00 21 1012.1
20260504031517 77 203 5.0 12.0 0.00 0.00 0.00 21 1011.9
20260504030517 78 203 5.0 11.0 0.00 0.00 0.00 20 1011.6
20260504025517 78 225 3.0 9.0 0.00 0.00 0.00 19 1011.3
20260504024517 78 248 3.0 7.0 0.00 0.00 0.00 19 1011.1
20260504023517 79 225 3.0 7.0 0.00 0.00 0.00 18 1010.9
20260504022517 80 225 3.0 9.0 0.00 0.00 0.00 17 1010.7
20260504021517 80 248 5.0 13.0 0.00 0.00 0.00 17 1010.6
20260504020517 81 225 2.0 9.0 0.00 0.00 0.00 16 1010.6
20260504015517 81 225 3.0 8.0 0.00 0.00 0.00 15 1010.3
20260504014517 82 248 4.0 10.0 0.00 0.00 0.00 15 1010.4
20260504013517 83 225 5.0 12.0 0.00 0.00 0.00 14 1010.3
20260504012522 85 248 4.0 9.0 0.00 0.00 0.00 14 1010.0
20260504011517 85 225 4.0 9.0 0.00 0.00 0.00 13 1010.2
20260504010517 85 225 5.0 12.0 0.00 0.00 0.00 13 1010.3
20260504005517 85 203 5.0 10.0 0.00 0.00 0.00 13 1010.5
20260504004517 86 203 7.0 14.0 0.00 0.00 0.00 12 1010.6
20260504003517 86 203 9.0 20.0 0.00 0.00 0.00 13 1010.5
20260504002517 87 203 8.0 18.0 0.00 0.00 0.00 13 1010.4
20260504001517 88 203 6.0 16.0 0.00 0.00 0.00 12 1010.3
20260504000517 88 203 9.0 16.0 0.00 0.00 0.00 13 1010.1
20260503235517 89 248 7.0 16.0 0.00 0.00 0.00 13 1010.1
20260503234517 89 225 7.0 15.0 0.00 0.00 0.00 13 1009.9
20260503233517 89 225 5.0 14.0 0.00 0.00 0.00 13 1009.8
20260503232517 89 180 9.0 15.0 0.00 0.00 0.00 13 1010.0
20260503231517 90 203 7.0 15.0 0.00 0.00 0.00 14 1010.0
20260503230517 90 225 7.0 15.0 0.00 0.00 0.00 15 1009.7
20260503225517 90 180 4.0 12.0 0.00 0.00 0.00 16 1010.1
20260503224517 89 180 8.0 19.0 0.00 0.00 0.00 16 1010.3